Regional Weather Roundup
Issued by NWS Jackson, KY

Home | Current Version | Previous Version | Graphics & Text | Print | Product List | Glossary On
Versions: 1 2 3 4 5 6 7 8 9 10 11 12 13 14 15 16 17 18 19 20 21 22 23 24 25 26 27 28 29 30 31 32 33 34 35 36 37 38 39 40 41 42 43 44 45 46 47 48 49 50
000
ASUS43 KJKL 210611
RWRJKL

EAST KENTUCKY HOURLY WEATHER ROUNDUP
NATIONAL WEATHER SERVICE JACKSON KY
100 AM EST FRI NOV 21 2014

NOTE: "FAIR" INDICATES FEW OR NO CLOUDS BELOW 12,000 FEET WITH
NO SIGNIFICANT WEATHER AND/OR OBSTRUCTIONS TO VISIBILITY.

* THESE REPORTS ARE NOT UNDER NWS QUALITY CONTROL AND MAY NOT
  REPORT WEATHER SUCH AS PRECIPITATION AND FOG.

KYZ079-080-083-085-087-088-110-112-115-119-120-210700
...EASTERN KENTUCKY...

CITY           SKY/WX    TMP DP  RH WIND       PRES   REMARKS
JACKSON        CLEAR     25  16  68 W6        30.29R WCI  18
6HR MIN TEMP:  25; 6HR MAX TEMP:  32;

LONDON         CLEAR     27  18  69 CALM      30.30R
6HR MIN TEMP:  26; 6HR MAX TEMP:  36;

SOMERSET*      CLEAR     25  19  80 CALM      30.35R
MONTICELLO*    CLEAR     20  18  92 CALM      30.36R
6HR MIN TEMP:  19; 6HR MAX TEMP:  33;

MIDDLESBORO*   CLEAR     25  22  89 CALM      30.30R
6HR MIN TEMP:  24; 6HR MAX TEMP:  33;

HARLAN APT*    CLEAR     30  19  64 CALM      30.28R
BIG SANDY*     CLEAR     27  17  66 W3        30.29R
6HR MIN TEMP:  27; 6HR MAX TEMP:  33;

MOREHEAD APT*  PTCLDY    23  16  74 W3        30.32R
$$

KYZ035-036-041-042-044-050-067-078-099-210700
...CENTRAL KENTUCKY...

CITY           SKY/WX    TMP DP  RH WIND       PRES   REMARKS
MT STERLING*   CLEAR     21  18  86 W5        30.32R WCI  15
FLEMING/MASON* CLEAR     20  14  78 SW6       30.31S WCI  13
DANVILLE*      CLEAR     25  18  74 NW3       30.32S
RICHMOND*      CLEAR     25  18  74 W3        30.31R
LEXINGTON      CLEAR     22  15  75 W5        30.31R WCI  16
6HR MIN TEMP:  22; 6HR MAX TEMP:  27;

FRANKFORT      CLEAR     20  14  77 SW3       30.31R
6HR MIN TEMP:  19; 6HR MAX TEMP:  27;

$$

KYZ091>093-OHZ055-061-077-WVZ005-015-034-035-042-210700
...SOUTHERN OHIO/WEST VIRGINIA...

CITY           SKY/WX    TMP DP  RH WIND       PRES   REMARKS
COVINGTON      CLEAR     21  12  68 NW5       30.28R WCI  15
COLUMBUS       PTCLDY    21  12  68 W6        30.24R WCI  13
DAYTON         CLEAR     21  13  71 W8        30.27R WCI  11
WILMINGTON     CLEAR     23  13  65 W12       30.25R WCI  12
HUNTINGTON     CLEAR     25  15  66 W5        30.29R WCI  19
CHARLESTON     CLEAR     27  15  61 W8        30.28R WCI  19
PINEVILLE*     CLEAR     29  22  74 MISG      30.28R
BECKLEY        MOCLDY    24  15  68 NW7       30.17R WCI  16
BLUEFIELD      CLEAR     27  15  61 NW15G24   30.15R WCI  15
$$

VAZ002-007-008-TNZ017-027-036-066-071-210700
...SOUTHWEST VIRGINIA/EAST TENNESSEE...

CITY           SKY/WX    TMP DP  RH WIND       PRES   REMARKS
WISE*          CLEAR     30  16  55 W6        30.21R WCI  24
JONESVILLE*    CLEAR     32  18  55 W6        30.29R WCI  26
ABINGDON*      CLEAR     34  17  49 W8        30.21R WCI  27
BRISTOL        CLEAR     33  18  53 SW6       30.25R WCI  28
KNOXVILLE      CLEAR     34  23  64 SW6       30.29R WCI  29
OAK RIDGE      CLEAR     36  22  56 CALM      30.30R
CROSSVILLE     CLEAR     34  19  54 W5        30.27R WCI  30
NASHVILLE      CLEAR     31  24  75 CALM      30.33R
$$

...KEY TO REMARKS...
VSB - VISIBILITY IN MILES
WCI - WIND CHILL INDEX
HX  - HEAT INDEX

$$



USA.gov is the U.S. government's official web portal to all federal, state and local government web resources and services.